| time (UTC) | temp F | wind direction | speed knots | gust knots | rain 1hr in | rain 24hr in | rain mn in | humidity % | barometer mb |
| 20260510063037 | 54 | 38 | 9.6 | 16.5 | 0.00 | 0.00 | 0.00 | 79 | 1014.1 |
| 20260510061501 | 53 | 37 | 7.8 | 15.6 | 0.00 | 0.00 | 0.00 | 82 | 1014.1 |
| 20260510060116 | 53 | 36 | 7.8 | 17.4 | 0.00 | 0.00 | 0.00 | 85 | 1014.0 |
| 20260510054651 | 52 | 50 | 7.0 | 13.9 | 0.00 | 0.00 | 0.00 | 87 | 1014.0 |
| 20260510053115 | 51 | 40 | 8.7 | 13.9 | 0.00 | 0.00 | 0.00 | 88 | 1013.9 |
| 20260510051544 | 50 | 12 | 6.1 | 11.3 | 0.00 | 0.00 | 0.00 | 89 | 1014.0 |
| 20260510050008 | 49 | 29 | 6.1 | 10.4 | 0.00 | 0.00 | 0.00 | 89 | 1014.1 |
| 20260510044559 | 49 | 31 | 5.2 | 7.8 | 0.00 | 0.00 | 0.00 | 88 | 1014.1 |
| 20260510043046 | 49 | 32 | 5.2 | 8.7 | 0.00 | 0.00 | 0.00 | 88 | 1014.0 |
| 20260510041638 | 49 | 21 | 5.2 | 9.6 | 0.00 | 0.00 | 0.00 | 88 | 1014.0 |
| 20260510040105 | 50 | 18 | 7.0 | 11.3 | 0.00 | 0.00 | 0.00 | 88 | 1013.8 |
| 20260510034558 | 49 | 32 | 6.1 | 10.4 | 0.00 | 0.00 | 0.00 | 88 | 1013.9 |
| 20260510033047 | 50 | 35 | 5.2 | 8.7 | 0.00 | 0.00 | 0.00 | 88 | 1014.0 |
| 20260510031637 | 50 | 16 | 5.2 | 8.7 | 0.00 | 0.00 | 0.00 | 87 | 1014.0 |
| 20260510024506 | 50 | 26 | 5.2 | 10.4 | 0.00 | 0.00 | 0.00 | 88 | 1014.1 |
| 20260510023125 | 50 | 22 | 4.3 | 7.0 | 0.00 | 0.00 | 0.00 | 88 | 1014.1 |
| 20260510021611 | 50 | 28 | 4.3 | 7.8 | 0.00 | 0.00 | 0.00 | 88 | 1014.2 |
| 20260510020058 | 50 | 28 | 5.2 | 8.7 | 0.00 | 0.00 | 0.00 | 88 | 1014.1 |
| 20260510014557 | 50 | 13 | 4.3 | 7.0 | 0.00 | 0.00 | 0.00 | 87 | 1014.3 |
| 20260510013119 | 50 | 14 | 4.3 | 7.8 | 0.00 | 0.00 | 0.00 | 87 | 1014.4 |
| 20260510011609 | 50 | 26 | 4.3 | 7.8 | 0.00 | 0.00 | 0.00 | 86 | 1014.4 |
| 20260510010055 | 50 | 9 | 5.2 | 7.8 | 0.00 | 0.00 | 0.00 | 85 | 1014.4 |
| 20260510004630 | 51 | 29 | 4.3 | 8.7 | 0.00 | 0.00 | 0.00 | 84 | 1014.4 |
| 20260510003055 | 51 | 33 | 4.3 | 7.0 | 0.00 | 0.00 | 0.00 | 84 | 1014.6 |
| 20260510001544 | 52 | 19 | 3.5 | 7.8 | 0.00 | 0.00 | 0.00 | 83 | 1014.8 |
| 20260510000013 | 52 | 24 | 5.2 | 8.7 | 0.00 | 0.00 | 0.00 | 83 | 1014.8 |
| 20260509234625 | 52 | 45 | 5.2 | 10.4 | 0.00 | 0.00 | 0.00 | 82 | 1014.9 |
| 20260509233112 | 52 | 23 | 4.3 | 9.6 | 0.00 | 0.00 | 0.00 | 81 | 1015.0 |
| 20260509231610 | 52 | 43 | 6.1 | 10.4 | 0.00 | 0.00 | 0.00 | 80 | 1015.1 |
| 20260509230047 | 53 | 29 | 7.0 | 11.3 | 0.00 | 0.00 | 0.00 | 80 | 1015.0 |
| 20260509224537 | 53 | 28 | 7.0 | 10.4 | 0.00 | 0.00 | 0.00 | 79 | 1015.0 |
| 20260509223002 | 53 | 24 | 5.2 | 11.3 | 0.00 | 0.00 | 0.00 | 79 | 1015.2 |
| 20260509221621 | 53 | 5 | 6.1 | 9.6 | 0.00 | 0.00 | 0.00 | 78 | 1015.0 |
| 20260509220017 | 53 | 13 | 5.2 | 9.6 | 0.00 | 0.00 | 0.00 | 78 | 1015.0 |
| 20260509214501 | 53 | 5 | 6.1 | 9.6 | 0.00 | 0.00 | 0.00 | 77 | 1015.0 |
| 20260509213117 | 53 | 25 | 6.1 | 9.6 | 0.00 | 0.00 | 0.00 | 77 | 1015.1 |
| 20260509211606 | 53 | 17 | 6.1 | 8.7 | 0.00 | 0.00 | 0.00 | 77 | 1015.1 |
| 20260509210105 | 53 | 17 | 6.1 | 8.7 | 0.00 | 0.00 | 0.00 | 75 | 1014.9 |
| 20260509204517 | 54 | 12 | 5.2 | 8.7 | 0.00 | 0.00 | 0.00 | 74 | 1014.9 |
| 20260509203110 | 55 | 5 | 6.1 | 7.8 | 0.00 | 0.00 | 0.00 | 73 | 1014.8 |
| 20260509201600 | 56 | 30 | 4.3 | 7.0 | 0.00 | 0.00 | 0.00 | 71 | 1015.0 |
| 20260509200049 | 56 | 30 | 6.1 | 9.6 | 0.00 | 0.00 | 0.00 | 70 | 1014.8 |
| 20260509194510 | 56 | 26 | 5.2 | 8.7 | 0.00 | 0.00 | 0.00 | 70 | 1014.7 |
| 20260509193126 | 57 | 19 | 6.1 | 8.7 | 0.00 | 0.00 | 0.00 | 70 | 1014.6 |
| 20260509191616 | 58 | 5 | 5.2 | 8.7 | 0.00 | 0.00 | 0.00 | 70 | 1014.3 |
| 20260509184551 | 60 | 17 | 7.8 | 12.2 | 0.00 | 0.00 | 0.00 | 66 | 1014.5 |
| 20260509183038 | 61 | 5 | 6.1 | 12.2 | 0.00 | 0.00 | 0.00 | 65 | 1014.4 |
| 20260509181503 | 62 | 5 | 8.7 | 13.9 | 0.00 | 0.00 | 0.00 | 64 | 1014.3 |
| 20260509180118 | 63 | 23 | 6.1 | 12.2 | 0.00 | 0.00 | 0.00 | 63 | 1014.4 |
| 20260509174611 | 64 | 14 | 7.8 | 13.0 | 0.00 | 0.00 | 0.00 | 63 | 1014.3 |
| 20260509173118 | 64 | 5 | 9.6 | 15.6 | 0.00 | 0.00 | 0.00 | 62 | 1014.2 |
| 20260509171628 | 65 | 28 | 7.0 | 16.5 | 0.00 | 0.00 | 0.00 | 61 | 1014.0 |
| 20260509170129 | 66 | 26 | 9.6 | 16.5 | 0.00 | 0.00 | 0.00 | 60 | 1013.9 |
| 20260509164607 | 67 | 28 | 7.0 | 15.6 | 0.00 | 0.00 | 0.00 | 61 | 1014.1 |
| 20260509163051 | 67 | 26 | 12.2 | 17.4 | 0.00 | 0.00 | 0.00 | 57 | 1014.1 |
| 20260509161514 | 68 | 11 | 9.6 | 18.2 | 0.00 | 0.00 | 0.00 | 60 | 1014.0 |
| 20260509160002 | 68 | 5 | 10.4 | 16.5 | 0.00 | 0.00 | 0.00 | 60 | 1014.1 |
| 20260509154617 | 69 | 16 | 11.3 | 16.5 | 0.00 | 0.00 | 0.00 | 59 | 1014.0 |
| 20260509153103 | 69 | 18 | 8.7 | 13.0 | 0.00 | 0.00 | 0.00 | 53 | 1014.1 |
| 20260509151506 | 69 | 63 | 5.2 | 11.3 | 0.00 | 0.00 | 0.00 | 54 | 1014.0 |
| 20260509144552 | 70 | 5 | 6.1 | 13.0 | 0.00 | 0.00 | 0.00 | 53 | 1014.1 |
| 20260509143036 | 68 | 38 | 6.1 | 10.4 | 0.00 | 0.00 | 0.00 | 53 | 1014.2 |
| 20260509141629 | 68 | 52 | 7.8 | 13.0 | 0.00 | 0.00 | 0.00 | 54 | 1014.3 |
| 20260509140054 | 69 | 60 | 7.8 | 11.3 | 0.00 | 0.00 | 0.00 | 56 | 1014.3 |
| 20260509134519 | 69 | 58 | 3.5 | 12.2 | 0.00 | 0.00 | 0.00 | 55 | 1014.5 |
| 20260509133009 | 70 | 59 | 7.0 | 13.9 | 0.00 | 0.00 | 0.00 | 53 | 1014.6 |
| 20260509131623 | 69 | 68 | 4.3 | 13.9 | 0.00 | 0.00 | 0.00 | 57 | 1014.5 |
| 20260509130129 | 68 | 82 | 7.8 | 13.0 | 0.00 | 0.00 | 0.00 | 56 | 1014.7 |
| 20260509124541 | 68 | 64 | 3.5 | 13.0 | 0.00 | 0.00 | 0.00 | 55 | 1014.8 |
| 20260509123003 | 69 | 88 | 5.2 | 11.3 | 0.00 | 0.00 | 0.00 | 54 | 1015.2 |
| 20260509121619 | 69 | 15 | 7.0 | 10.4 | 0.00 | 0.00 | 0.00 | 53 | 1015.3 |
| 20260509120104 | 69 | 57 | 5.2 | 10.4 | 0.00 | 0.00 | 0.00 | 58 | 1015.4 |
| 20260509114625 | 69 | 42 | 1.7 | 12.2 | 0.00 | 0.00 | 0.00 | 54 | 1015.6 |
| 20260509113040 | 69 | 50 | 8.7 | 13.0 | 0.00 | 0.00 | 0.00 | 54 | 1015.7 |
| 20260509111506 | 69 | 67 | 8.7 | 12.2 | 0.00 | 0.00 | 0.00 | 56 | 1016.0 |
| 20260509110123 | 68 | 75 | 5.2 | 13.9 | 0.00 | 0.00 | 0.00 | 57 | 1016.2 |
| 20260509104611 | 67 | 52 | 7.8 | 13.9 | 0.00 | 0.00 | 0.00 | 55 | 1016.1 |
| 20260509103107 | 67 | 88 | 7.0 | 13.9 | 0.00 | 0.00 | 0.00 | 55 | 1016.2 |
| 20260509101631 | 67 | 98 | 7.0 | 11.3 | 0.00 | 0.00 | 0.00 | 59 | 1016.2 |
| 20260509100115 | 67 | 71 | 6.1 | 12.2 | 0.00 | 0.00 | 0.00 | 58 | 1016.3 |
| 20260509094543 | 66 | 60 | 8.7 | 13.0 | 0.00 | 0.00 | 0.00 | 56 | 1016.4 |
| 20260509093030 | 66 | 54 | 7.8 | 13.9 | 0.00 | 0.00 | 0.00 | 59 | 1016.4 |
| 20260509091602 | 65 | 72 | 8.7 | 12.2 | 0.00 | 0.00 | 0.00 | 60 | 1016.4 |
| 20260509090049 | 64 | 109 | 7.8 | 11.3 | 0.00 | 0.00 | 0.00 | 62 | 1016.5 |
| 20260509084514 | 64 | 106 | 8.7 | 12.2 | 0.00 | 0.00 | 0.00 | 61 | 1016.6 |
| 20260509083003 | 63 | 59 | 8.7 | 13.0 | 0.00 | 0.00 | 0.00 | 64 | 1016.6 |
| 20260509081619 | 63 | 89 | 8.7 | 13.9 | 0.00 | 0.00 | 0.00 | 64 | 1016.6 |
| 20260509080003 | 63 | 87 | 8.7 | 11.3 | 0.00 | 0.00 | 0.00 | 64 | 1016.8 |
| 20260509074619 | 62 | 77 | 7.8 | 10.4 | 0.00 | 0.00 | 0.00 | 67 | 1016.7 |
| 20260509073102 | 61 | 51 | 4.3 | 8.7 | 0.00 | 0.00 | 0.00 | 70 | 1016.7 |
| 20260509071506 | 59 | 73 | 5.2 | 7.8 | 0.00 | 0.00 | 0.00 | 73 | 1016.8 |
| 20260509070122 | 58 | 82 | 5.2 | 8.7 | 0.00 | 0.00 | 0.00 | 75 | 1016.8 |
| 20260509064504 | 57 | 65 | 4.3 | 8.7 | 0.00 | 0.00 | 0.00 | 75 | 1016.8 |